WGS F5 (USA 243)

Last updated on Tue Oct 15 2024 00:02:39 GMT+0000 (Coordinated Universal Time)

1 39168U 13024A 24288.18269743 -.00000286 00000+0 00000+0 0 9996 2 39168 0.0225 204.1125 0000608 356.5441 195.8325 1.00270965 41047
UTC large
Height (km)
Speed (km/s)
/
Latitude / Longitude
Inclination (degrees)
Orbital Period (minutes)
Azimuth
Elevation
Range (km)
Doppler Factor

Next 0 passes for location: London (51.5072 / 0.1276)

Sorry there are no passes over London.